Location: Gandikunta
(16.3784°N, 80.8378°E)
Time: 20:34:32
(UTC+00:00)

SJ-11-01 - Pass Details

Date: 19 May 2025
Orbit: 674 x 692 km, 98.0° (Epoch: 18 June)

Event Time Altitude Azimuth Distance (km) Brightness Sun altitude
Rises 23:23:28 0° 10° (N) 3,023 8.1 -10.0°
Reaches altitude 10° 23:25:42 10° 10° (N) 2,106 7.3 -9.5°
Maximum altitude 23:30:19 84° 283° (WNW) 681 4.2 -8.5°
Drops below altitude 10° 23:34:54 10° 194° (SSW) 2,099 6.4 -7.5°
Sets 23:37:07 0° 194° (SSW) 3,012 7.2 -7.0°
